Change the Weather History Date:

Saturday, April 13, 2013

  Actual Average (KDAY) Record (KDAY)
Temperature  
Mean Temperature 38 °F 51 °F  
Max Temperature 44 °F 61 °F 85 °F (1887)
Min Temperature 33 °F 41 °F 19 °F (1950)
Degree Days  
Heating Degree Days 26 14  
Month to date heating degree days 216  
Since 1 July heating degree days 5255  
Cooling Degree Days 0 0  
Month to date cooling degree days 0  
Year to date cooling degree days 0  
Moisture  
Dew Point 34 °F    
Average Humidity 79    
Maximum Humidity 93    
Minimum Humidity 61    
Precipitation  
Precipitation 0.00 in 0.13 in 1.07 in (1991)
Month to date precipitation 1.70  
Year to date precipitation 9.99  
Snow  
Snow 0.00 in 0.10 in 0.50 in (1950)
Month to date snowfall 0.5  
Since 1 July snowfall 23.2  
Snow Depth -    
Sea Level Pressure  
Sea Level Pressure 29.95 in    
Wind  
Wind Speed 12 mph (West)    
Max Wind Speed 22 mph    
Max Gust Speed 29 mph    
Visibility 10 miles    
Events      
T = Trace of Precipitation, MM = Missing Value Source: NWS Daily Summary

Daily Weather History Graph

Daily Weather History Graph

Search for Another Location

Airport or City:

Trip Planner

Search our weather history database for the weather conditions in past years. The results will help you decide how hot, cold, wet, or windy it might be!

Date:

Astronomy

Apr. 13, 2013 Rise Set
Actual Time 7:02 AM EDT 8:15 PM EDT
Civil Twilight 6:34 AM EDT 8:43 PM EDT
Nautical Twilight 6:01 AM EDT 9:16 PM EDT
Astronomical Twilight 5:26 AM EDT 9:52 PM EDT
Moon 8:53 AM EDT (4/13) 11:38 PM EDT (4/13)
Length of Visible Light 14h 08m
Length of Day
13h 12m
Waxing Crescent, 10% of the Moon is Illuminated
Apr 13
Waxing Crescent
Apr 18
First Quarter
Apr 25
Full
May 2
Last Quarter
May 9
New

Hourly Weather History & Observations

Time (EDT) Temp. Windchill Dew Point Humidity Pressure Visibility Wind Dir Wind Speed Gust Speed Precip Events Conditions
12:15 AM 37.4 °F 28.5 °F 33.8 °F 87% 29.90 in 10.0 mi West 15.0 mph 20.7 mph N/A   Overcast
12:35 AM 39.2 °F 31.2 °F 33.8 °F 81% 29.90 in 10.0 mi West 13.8 mph 18.4 mph N/A   Overcast
12:55 AM 39.2 °F 32.5 °F 33.8 °F 81% 29.90 in 10.0 mi West 10.4 mph - N/A   Overcast
1:15 AM 39.2 °F 32.0 °F 33.8 °F 81% 29.91 in 10.0 mi West 11.5 mph - N/A   Overcast
1:35 AM 39.2 °F 33.0 °F 33.8 °F 81% 29.91 in 10.0 mi West 9.2 mph - N/A   Overcast
1:55 AM 39.2 °F 33.0 °F 33.8 °F 81% 29.91 in 10.0 mi WSW 9.2 mph - N/A   Overcast
2:15 AM 39.2 °F 32.5 °F 33.8 °F 81% 29.91 in 10.0 mi WSW 10.4 mph - N/A   Overcast
2:35 AM 39.2 °F 33.0 °F 33.8 °F 81% 29.92 in 10.0 mi WSW 9.2 mph 16.1 mph N/A   Overcast
2:55 AM 39.2 °F 32.5 °F 33.8 °F 81% 29.91 in 10.0 mi WSW 10.4 mph - N/A   Overcast
3:15 AM 39.2 °F 32.5 °F 33.8 °F 81% 29.91 in 10.0 mi WSW 10.4 mph - N/A   Overcast
3:35 AM 39.2 °F 32.0 °F 33.8 °F 81% 29.91 in 10.0 mi WSW 11.5 mph - N/A   Overcast
3:55 AM 37.4 °F 29.8 °F 33.8 °F 87% 29.91 in 10.0 mi WSW 11.5 mph - N/A   Overcast
4:15 AM 37.4 °F 30.8 °F 33.8 °F 87% 29.90 in 10.0 mi WSW 9.2 mph - N/A   Overcast
4:35 AM 37.4 °F 30.8 °F 33.8 °F 87% 29.91 in 10.0 mi West 9.2 mph - N/A   Overcast
4:55 AM 35.6 °F 31.7 °F 33.8 °F 93% 29.91 in 10.0 mi West 4.6 mph - N/A   Overcast
5:15 AM 37.4 °F 30.3 °F 35.6 °F 93% 29.91 in 10.0 mi WSW 10.4 mph - N/A   Overcast
5:35 AM 37.4 °F 30.3 °F 33.8 °F 87% 29.91 in 10.0 mi WSW 10.4 mph 16.1 mph N/A   Overcast
5:55 AM 37.4 °F 30.8 °F 33.8 °F 87% 29.90 in 10.0 mi WSW 9.2 mph - N/A   Overcast
6:15 AM 37.4 °F 30.8 °F 33.8 °F 87% 29.90 in 10.0 mi WSW 9.2 mph - N/A   Overcast
6:35 AM 37.4 °F 28.9 °F 33.8 °F 87% 29.90 in 10.0 mi WSW 13.8 mph 17.3 mph N/A   Overcast
6:55 AM 37.4 °F 30.3 °F 33.8 °F 87% 29.90 in 10.0 mi WSW 10.4 mph - N/A   Overcast
7:15 AM 37.4 °F 30.8 °F 33.8 °F 87% 29.91 in 10.0 mi WSW 9.2 mph - N/A   Overcast
7:35 AM 37.4 °F 30.3 °F 33.8 °F 87% 29.91 in 10.0 mi WSW 10.4 mph - N/A   Overcast
7:55 AM 37.4 °F 30.3 °F 33.8 °F 87% 29.91 in 10.0 mi WSW 10.4 mph - N/A   Overcast
8:15 AM 37.4 °F 30.3 °F 35.6 °F 93% 29.92 in 10.0 mi WSW 10.4 mph - N/A   Overcast
8:35 AM 39.2 °F 32.5 °F 35.6 °F 87% 29.92 in 10.0 mi WSW 10.4 mph - N/A   Overcast
8:55 AM 39.2 °F 32.5 °F 35.6 °F 87% 29.92 in 10.0 mi WSW 10.4 mph - N/A   Overcast
9:15 AM 39.2 °F 32.0 °F 35.6 °F 87% 29.93 in 10.0 mi WSW 11.5 mph - N/A   Overcast
9:35 AM 39.2 °F 32.0 °F 35.6 °F 87% 29.93 in 10.0 mi WSW 11.5 mph 17.3 mph N/A   Overcast
9:55 AM 39.2 °F 30.5 °F 33.8 °F 81% 29.93 in 10.0 mi WSW 16.1 mph 25.3 mph N/A   Overcast
10:15 AM 39.2 °F 30.8 °F 32.0 °F 75% 29.94 in 10.0 mi WSW 15.0 mph 20.7 mph N/A   Overcast
10:35 AM 39.2 °F 30.2 °F 32.0 °F 75% 29.94 in 10.0 mi West 17.3 mph 24.2 mph N/A   Overcast
10:55 AM 41.0 °F 31.9 °F 32.0 °F 70% 29.95 in 10.0 mi West 19.6 mph 26.5 mph N/A   Overcast
11:15 AM 41.0 °F 32.5 °F 32.0 °F 70% 29.95 in 10.0 mi West 17.3 mph 26.5 mph N/A   Overcast
11:35 AM 41.0 °F 31.6 °F 32.0 °F 70% 29.95 in 10.0 mi West 20.7 mph 26.5 mph N/A   Overcast
11:55 AM 41.0 °F 31.9 °F 32.0 °F 70% 29.95 in 10.0 mi West 19.6 mph 27.6 mph N/A   Overcast
12:15 PM 41.0 °F 31.9 °F 32.0 °F 70% 29.95 in 10.0 mi West 19.6 mph 25.3 mph N/A   Overcast
12:35 PM 41.0 °F 31.9 °F 32.0 °F 70% 29.96 in 10.0 mi West 19.6 mph 23.0 mph N/A   Overcast
12:55 PM 42.8 °F 35.1 °F 32.0 °F 66% 29.95 in 10.0 mi West 16.1 mph 21.9 mph N/A   Overcast
1:15 PM 42.8 °F 34.8 °F 32.0 °F 66% 29.95 in 10.0 mi West 17.3 mph 23.0 mph N/A   Overcast
1:35 PM 42.8 °F 34.5 °F 33.8 °F 70% 29.95 in 10.0 mi West 18.4 mph 23.0 mph N/A   Overcast
1:55 PM 42.8 °F 34.5 °F 33.8 °F 70% 29.95 in 10.0 mi West 18.4 mph 25.3 mph N/A   Overcast
2:15 PM 44.6 °F 36.6 °F 33.8 °F 66% 29.95 in 10.0 mi West 19.6 mph 27.6 mph N/A   Overcast
2:35 PM 44.6 °F 36.1 °F 35.6 °F 71% 29.95 in 10.0 mi West 21.9 mph 28.8 mph N/A   Overcast
2:55 PM 44.6 °F 36.4 °F 35.6 °F 71% 29.95 in 10.0 mi West 20.7 mph 28.8 mph N/A   Overcast
3:15 PM 44.6 °F 36.9 °F 37.4 °F 76% 29.96 in 10.0 mi WNW 18.4 mph 25.3 mph N/A   Mostly Cloudy
3:35 PM 44.6 °F 37.4 °F 37.4 °F 76% 29.97 in 10.0 mi WNW 16.1 mph 25.3 mph N/A   Mostly Cloudy
3:55 PM 44.6 °F 36.4 °F 37.4 °F 76% 29.97 in 10.0 mi WNW 20.7 mph 24.2 mph N/A   Mostly Cloudy
4:15 PM 44.6 °F 37.2 °F 37.4 °F 76% 29.97 in 10.0 mi West 17.3 mph 25.3 mph N/A   Mostly Cloudy
4:35 PM 44.6 °F 37.8 °F 37.4 °F 76% 29.97 in 10.0 mi WNW 15.0 mph 21.9 mph N/A   Overcast
4:55 PM 44.6 °F 37.8 °F 35.6 °F 71% 29.97 in 10.0 mi WNW 15.0 mph 25.3 mph N/A   Mostly Cloudy
5:15 PM 44.6 °F 37.4 °F 35.6 °F 71% 29.98 in 10.0 mi WNW 16.1 mph 25.3 mph N/A   Scattered Clouds
5:35 PM 44.6 °F 37.2 °F 35.6 °F 71% 29.98 in 10.0 mi WNW 17.3 mph 24.2 mph N/A   Scattered Clouds
5:55 PM 44.6 °F 37.4 °F 33.8 °F 66% 29.98 in 10.0 mi WNW 16.1 mph 23.0 mph N/A   Scattered Clouds
6:15 PM 44.6 °F 36.9 °F 33.8 °F 66% 29.99 in 10.0 mi WNW 18.4 mph 25.3 mph N/A   Clear
6:35 PM 44.6 °F 38.1 °F 33.8 °F 66% 29.99 in 10.0 mi WNW 13.8 mph 19.6 mph N/A   Clear
6:55 PM 44.6 °F 38.1 °F 32.0 °F 61% 29.99 in 10.0 mi West 13.8 mph 23.0 mph N/A   Clear
7:15 PM 42.8 °F 35.8 °F 32.0 °F 66% 29.99 in 10.0 mi WNW 13.8 mph 21.9 mph N/A   Clear
7:35 PM 42.8 °F 37.0 °F 32.0 °F 66% 29.99 in 10.0 mi WNW 10.4 mph - N/A   Clear
7:55 PM 42.8 °F 36.2 °F 32.0 °F 66% 29.99 in 10.0 mi WNW 12.7 mph - N/A   Clear
8:15 PM 41.0 °F 35.2 °F 32.0 °F 70% 29.99 in 10.0 mi WNW 9.2 mph - N/A   Clear
8:35 PM 41.0 °F 37.1 °F 32.0 °F 70% 30.00 in 10.0 mi WNW 5.8 mph - N/A   Clear
8:55 PM 39.2 °F 35.9 °F 32.0 °F 75% 30.00 in 10.0 mi WNW 4.6 mph - N/A   Clear
9:15 PM 37.4 °F 34.9 °F 32.0 °F 81% 30.00 in 10.0 mi NW 3.5 mph - N/A   Clear
9:35 PM 37.4 °F - 32.0 °F 81% 30.00 in 10.0 mi Calm Calm - N/A   Clear
9:55 PM 37.4 °F - 32.0 °F 81% 30.01 in 10.0 mi Calm Calm - N/A   Clear
10:15 PM 37.4 °F - 32.0 °F 81% 30.02 in 10.0 mi Calm Calm - N/A   Clear
10:35 PM 35.6 °F - 32.0 °F 87% 30.02 in 10.0 mi Calm Calm - N/A   Clear
10:55 PM 33.8 °F - 32.0 °F 93% 30.02 in 10.0 mi Calm Calm - N/A   Scattered Clouds
11:15 PM 35.6 °F - 33.8 °F 93% 30.02 in 10.0 mi Calm Calm - N/A   Mostly Cloudy
11:35 PM 35.6 °F 32.8 °F 33.8 °F 93% 30.02 in 10.0 mi SW 3.5 mph - N/A   Mostly Cloudy
11:55 PM 35.6 °F 32.8 °F 33.8 °F 93% 30.02 in 10.0 mi SSW 3.5 mph - N/A   Mostly Cloudy